Vancouver, WA

1:17 AM PST on December 15, 2017 (GMT -0800)
Pearson

Weather History for KVUO - September, 2013

Change the Weather History Date:

Wednesday, September 4, 2013

  Actual Average Record
Temperature  
Mean Temperature 67 °F 67 °F  
Max Temperature 73 °F 79 °F 95 °F (2003)
Min Temperature 60 °F 54 °F 41 °F (1898)
Degree Days  
Heating Degree Days 0    
Month to date heating degree days 0  
Since 1 July heating degree days 13  
Cooling Degree Days 2    
Month to date cooling degree days 19  
Year to date cooling degree days 395  
Growing Degree Days 18 (Base 50)    
Moisture  
Dew Point 58 °F    
Average Humidity 73    
Maximum Humidity 84    
Minimum Humidity 61    
Precipitation  
Precipitation 0.00 in 0.04 in 1.60 in (1945)
Month to date precipitation 0.13 0.13  
Year to date precipitation 15.96 21.96  
Sea Level Pressure  
Sea Level Pressure 30.02 in    
Wind  
Wind Speed 2 mph (NNW)    
Max Wind Speed 10 mph    
Max Gust Speed 14 mph    
Visibility 10 miles    
Events      
T = Trace of Precipitation, MM = Missing Value Source: NWS Daily Summary

Daily Weather History Graph

Daily Weather History Graph

Search for Another Location

Airport or City:

Trip Planner

Search our weather history database for the weather conditions in past years. The results will help you decide how hot, cold, wet, or windy it might be!

Date:

Astronomy

Sep. 04, 2013 Rise Set
Actual Time 6:35 AM PDT 7:42 PM PDT
Civil Twilight 6:05 AM PDT 8:12 PM PDT
Nautical Twilight 5:28 AM PDT 8:48 PM PDT
Astronomical Twilight 4:50 AM PDT 9:27 PM PDT
Moon 5:54 AM PDT (9/4) 7:02 PM PDT (9/4)
Length of Visible Light 14h 07m
Length of Day
13h 06m
Waning Crescent, 1% of the Moon is Illuminated
Sep 4
Waning Crescent
Sep 5
New
Sep 12
First Quarter
Sep 19
Full
Sep 26
Last Quarter

Hourly Weather History & Observations

Time (PDT) Temp. Dew Point Humidity Pressure Visibility Wind Dir Wind Speed Gust Speed Precip Events Conditions
12:53 AM 64.9 °F 57.9 °F 78% 29.98 in 10.0 mi NW 5.8 mph - N/A   Clear
1:53 AM 64.0 °F 57.9 °F 80% 29.99 in 10.0 mi Calm Calm - N/A   Clear
2:53 AM 63.0 °F 57.0 °F 81% 29.99 in 10.0 mi Calm Calm - N/A   Scattered Clouds
3:53 AM 62.1 °F 57.9 °F 86% 29.99 in 10.0 mi Calm Calm - N/A   Mostly Cloudy
4:53 AM 63.0 °F 57.9 °F 84% 30.00 in 10.0 mi Calm Calm - N/A   Overcast
5:53 AM 63.0 °F 57.9 °F 84% 30.00 in 10.0 mi Calm Calm - N/A   Mostly Cloudy
6:11 AM 62.6 °F 57.2 °F 82% 30.00 in 10.0 mi Calm Calm - N/A   Overcast
6:53 AM 64.0 °F 57.9 °F 80% 30.01 in 10.0 mi Calm Calm - N/A   Mostly Cloudy
7:09 AM 64.4 °F 57.2 °F 77% 30.01 in 10.0 mi Calm Calm - N/A   Mostly Cloudy
7:46 AM 64.4 °F 57.2 °F 77% 30.01 in 10.0 mi WNW 3.5 mph - N/A   Overcast
7:53 AM 64.9 °F 57.9 °F 78% 30.01 in 10.0 mi NNW 4.6 mph - N/A   Overcast
8:53 AM 64.9 °F 57.0 °F 75% 30.03 in 10.0 mi NW 3.5 mph - N/A   Overcast
9:53 AM 66.0 °F 57.9 °F 75% 30.03 in - NNW 3.5 mph - N/A   Overcast
10:53 AM 68.0 °F 57.9 °F 70% 30.05 in 10.0 mi WSW 3.5 mph - N/A   Overcast
11:53 AM 68.0 °F 57.9 °F 70% 30.05 in 10.0 mi Calm Calm - N/A   Overcast
12:09 PM 69.8 °F 59.0 °F 68% 30.05 in 10.0 mi Calm Calm - N/A   Overcast
12:53 PM 71.1 °F 57.9 °F 63% 30.04 in 10.0 mi Calm Calm - N/A   Overcast
1:53 PM 70.0 °F 59.0 °F 68% 30.04 in 10.0 mi ESE 4.6 mph - N/A   Overcast
2:10 PM 69.8 °F 59.0 °F 68% 30.04 in 10.0 mi ESE 4.6 mph - N/A   Overcast
2:53 PM 71.1 °F 59.0 °F 66% 30.04 in 10.0 mi Calm Calm - N/A   Overcast
3:53 PM 73.0 °F 59.0 °F 61% 30.03 in 10.0 mi Calm Calm - N/A   Clear
4:53 PM 72.0 °F 59.0 °F 64% 30.02 in 10.0 mi Variable 3.5 mph - N/A   Scattered Clouds
5:53 PM 72.0 °F 59.0 °F 64% 30.02 in 10.0 mi ENE 3.5 mph - N/A   Mostly Cloudy
6:53 PM 71.1 °F 60.1 °F 68% 30.00 in 10.0 mi NE 3.5 mph - N/A   Mostly Cloudy
7:53 PM 71.1 °F 59.0 °F 66% 30.01 in 10.0 mi Calm Calm - N/A   Overcast
8:53 PM 70.0 °F 60.1 °F 71% 30.03 in 10.0 mi East 3.5 mph - N/A   Mostly Cloudy
9:53 PM 70.0 °F 60.1 °F 71% 30.03 in 10.0 mi Calm Calm - N/A   Overcast
10:21 PM 69.8 °F 60.8 °F 73% 30.02 in 10.0 mi NW 4.6 mph - N/A   Mostly Cloudy
10:53 PM 66.9 °F 60.1 °F 79% 30.02 in 10.0 mi WNW 5.8 mph - N/A   Clear
11:53 PM 66.0 °F 59.0 °F 78% 30.01 in 10.0 mi Calm Calm - N/A   Clear